User: anonymous   Login
Location: Caltech
(34.1382°N, 118.1253°W)
Time: 21:24:53
(UTC-07:00)
Language:

Cosmos 1508 Rocket - Orbit

View from above orbital plane
View from above orbital plane
View from above satellite
View from above satellite

Ground track
Ground track

The orbit data is extracted from the following two-line orbital elements,

1 14484U 83111B   15086.97009934  .00136095  40237-5  93749-3 0  9996
2 14484 082.8262 049.1805 0115150 318.8772 127.6603 15.65766872616367
Epoch (UTC): 27 March 2015 23:16:56
Eccentricity: 0.0115150
inclination: 82.8262°
perigee height: 293 km
apogee height: 449 km
right ascension of ascending node: 49.1805°
argument of perigee: 318.8772°
revolutions per day: 15.65766872
mean anomaly at epoch: 127.6603°
orbit number at epoch: 61636

The dashed part of the orbit path shows where the satellite is in the earth's shadow,  

DLR